カタログに戻る

HONGHU 2

運用中科学SSO
NORAD 58555·PAYLOAD·🇨🇳 China

打ち上げ Dec 8, 2023 から Jiuquan Satellite Launch Center

Loading…

次のパス (今後24時間)

TLE

最新Source: Space-Track

元期: Sep 14, 2026, 14:15 UTC

1 58555U 23193C   26257.59442525  .00007305  00000-0  21385-3 0  9991
2 58555  97.2853 247.5673 0040714 321.7667  38.0691 15.34701044115773

AllMySatでHONGHU 2をリアルタイム追跡

Download on the App Store